Station BGNN4 - 8519483 - BERGEN POINT WEST REACH- NY

Sailing guide
Sailing guide
english français italiano spagnolo
english français italiano español
Sea - Seek
Station BGNN4 - 8519483 - BERGEN POINT WEST REACH- NY
Station BGNN4 - 8519483 - BERGEN POINT WEST REACH- NY

Weather report - Station BGNN4 - 8519483 - BERGEN POINT WEST REACH- NY

Time Wind speed knots Wind direction Pressure ----
March 29, 2015 9:30 pm EDT 1023 Air Temperature:4.4
March 29, 2015 8:42 pm EDT 1021 Air Temperature:5.1
March 29, 2015 7:42 pm EDT 1021 Air Temperature:5.7
March 29, 2015 7:24 pm EDT 1021 Air Temperature:6.2
March 29, 2015 6:42 pm EDT 1021 Air Temperature:7.7
March 29, 2015 5:48 pm EDT 1022 Air Temperature:7.8
March 29, 2015 4:42 pm EDT 1022 Air Temperature:7.5
March 29, 2015 3:48 pm EDT 1022 Air Temperature:6.4
March 29, 2015 1:48 pm EDT 1011 Air Temperature:4.1
March 29, 2015 1:42 pm EDT 1024 Air Temperature:4.9
March 29, 2015 12:48 pm EDT 1025 Air Temperature:2.2
March 29, 2015 11:42 am EDT 1010 Air Temperature:0.9
March 29, 2015 10:48 am EDT 1026 Air Temperature:0
March 29, 2015 9:42 am EDT 1026 Air Temperature:-1.1
March 29, 2015 8:48 am EDT 1020 Air Temperature:-2.1
March 29, 2015 8:42 am EDT 1021 Air Temperature:-2.2
March 29, 2015 1:30 am EDT 1021 Air Temperature:-2.5
March 28, 2015 10:48 pm EDT 1019 Air Temperature:-0.9
March 28, 2015 10:42 pm EDT 1019 Air Temperature:-0.8
March 28, 2015 9:48 pm EDT 1019 Air Temperature:-0.5
March 28, 2015 8:48 pm EDT 1017 Air Temperature:0.4
March 28, 2015 7:48 pm EDT 1009 Air Temperature:1.4
March 28, 2015 6:48 pm EDT 1014 Air Temperature:2.4